STARLINK-32123, 60284

Orbit data source: Space-Track

STARLINK-32123, 60284 is a payload satellite owned by SpaceX/Seattle (US) in LEO that was launched on Sun, 28 Jul 2024 UTC via an FALCON 9 launch vehicle from the Air Force Eastern Test Range (AFETR). Payload-class satellites include a variety of spacecraft equipped with specific instruments for various scientific and technological missions. These include communications satellites like Starlink; space stations such as the ISS; scientific satellites like the Hubble; Earth observation satellites from companies like Planet Labs, Umbra, and HawkEye 360; GPS; miniature CubeSats for education and research; and military/defense satellites.

Loading next visibility...
Identifier
60284, 2024-132G
Orbit
LEO
Last TLE update
20 hours ago
Origin
Manufacturer
SpaceX/Seattle
Mission
Partially operational spacecraft
Bus & Motor
STARLINK V2M, Unknown motor
Mass
730 kg wet, ~700 kg dry
Launch date (UTC)
2024-07-28 (11 months ago)
Launch vehicle
FALCON 9
Launch site
Air Force Eastern Test Range (AFETR)
Object type
Payload
Rocket body
Debris
Shape & HBR
Unknown
Radar Cross Section
Large (>1 m²)

Expand to show TLE details & history

TLE from 20 hours ago
0 STARLINK-32123
1 60284U 24132G   25169.43754432 -.00000996  00000-0 -14930-4 0  9994
2 60284  53.1587 188.4092 0001231  68.2332 291.8804 15.39608400 51266
Epoch: 2025-06-18T10:30Z
TLE epoch observation values (Epoch: 2025-06-18T10:30:03.829Z)
Latitude
0.00001°
Longitude
123.97366°
Altitude
447.857 km
Speed
7.645 km/s
True Right ascension
12h 33m 38s
True Declination
0° 00' 00"
Sunlit
Object was in daylight at epoch
Visualization orbit readout
Latitude
3.94859°
Longitude
122.93982°
Altitude
447.403 km
Speed
7.645 km/s
Apparent Right ascension
09h 49m 45s
Apparent Declination
-25° 52' 04"
Sunlit
Object is in daylight
Visualization observer readout
Local Sidereal Time
17:37:04
Azimuth
264.733° W
Elevation
-36.261°
Doppler factor
1
Orbital elements
Apogee altitude
448.364 km
Perigee altitude
446.684 km
Semi-major axis
6,825.661 km
Eccentricity
0.00012
Inclination
53.1587°
RAAN
188.4092°
Arg. of periapsis
68.2332°
True anomaly
Unknown
Mean anomaly
291.8804°
Eccentric anomaly
Unknown
Mean motion
3.84881 °/min
Orbital period
93.54 mins
BSTAR
-0.00001493
Loading maneuver chart data...
Loading SW <> Apogee altitude chart data...
Loading historical data...
Loading historical data...
Loading historical data...
Loading historical data...
Loading historical data...
Loading historical data...
Loading historical data...

STARLINK-32123 Visibility forecast

Observer location: undefined°, undefined°

Span
Click to sort rows by Start time (UTC) header in descending order
Start Az.
Max El. time (UTC)
Max El. Az.
Max El.
End time (UTC)
End Az.
5 mins2025-06-19 10:22:32.757Z331.589° NNW2025-06-19 10:24:32.757Z64.072° ENE36.953°2025-06-19 10:27:32.757Z114.34° SE
4 mins2025-06-20 03:11:32.757Z193.684° SSW2025-06-20 03:13:32.757Z115.903° SE34.186°2025-06-20 03:15:32.757Z67.954° E
|